Cheyenne Regional Jerry Olson Field
KCYS : now visible

Airfield :











YOU CAN JOIN US ON...

 
LOGIN :

Register | Disclaimer

   EN    FR    IT 

 









Legend :    VFR   Marginal VFR   IFR   Intensive IFR   Very Intensive IFR
Visi :
Ceiling :
>= 8 km
>= 3000ft
5 to 8 km
1000 to 3000 ft
1500m to 5 km
500 to 1000 ft
800 to 1500m
200 to 500 ft
< 800m
< 200 ft
Symbols :   Thunderstorms  Fog  Heavy snow  Heavy precipitations  Wind > 20 kt






- Airport Elevation : 6159 ft
- IATA code : CYS


KCYS - Cheyenne Regional Jerry Olson Field

CURRENT METAR :
  • 281553Z 02009G15KT 10SM OVC006 12/08 A3034 RMK AO2 SLP218 T01170083

EXPIRED METARs :
  • 281453Z 36009KT 10SM OVC007 12/08 A3034 RMK AO2 SLP213 T01170083 51013
  • 281353Z 02008KT 10SM OVC005 11/08 A3032 RMK AO2 SLP205 T01060083

TAF KCYS
Valid from the 28 at 15:00 until the 29 at 12:00 UTC


281454Z 2815/2912 36009KT P6SM OVC007
FM281700 09011KT P6SM OVC011
FM282000 13010KT P6SM VCSH OVC030
FM290100 16008KT P6SM BKN040
FM290600 18008KT P6SM OVC015
KZDV FIR / North America



MET'MAP, your aeronautical weather chart ! - Copyright ORBIFLY December 2007 - Disclaimer

ORBIFLY MET'MAP TEAM :

Programming & Development : Alexandra Zaïnal
Concept & original design : Baudouin d'Aumeries
Assistance for programming : Marc-Olivier Méhu
Technical & hardware support : Manuel Goepfert

Contact : metmap@orbifly.com




SOURCES & CREDITS :

   NOAA       Earth
Advisory